GFSMA_sfc_thetae_114.txt.gz
Theta_e
329 332 333 334 338 339 338 336 336 334 334 334 335 332 330 332 331 332 330 328 334 341 346 347 344 343 341 340 340 339 338 337 337 336 335 335 335 333 333 332 331 331 331
328 330 330 331 332 335 338 335 334 332 333 334 333 333 332 329 330 330 329 327 331 337 342 346 347 345 343 342 341 341 341 339 338 338 337 336 336 336 333 333 333 333 333
327 328 329 328 329 330 333 335 332 330 330 330 331 333 332 330 328 330 330 328 327 331 337 343 344 344 345 344 343 342 342 341 341 340 340 339 338 338 335 333 333 332 333
328 327 327 328 329 327 326 325 326 326 326 326 327 329 331 329 331 329 327 328 327 329 332 337 340 343 343 346 344 345 344 342 341 341 341 341 340 339 337 334 333 331 331
332 326 327 326 326 324 323 324 323 324 323 323 324 324 325 326 328 331 329 326 324 327 329 330 332 335 338 342 346 346 346 343 342 341 342 341 341 340 338 336 333 332 330
329 328 327 326 325 324 321 322 321 322 322 321 324 324 323 325 325 326 328 329 327 324 325 326 328 331 332 338 341 345 346 346 343 342 342 342 341 341 340 337 335 332 331
323 323 325 324 324 321 320 320 319 318 318 320 318 319 321 325 325 327 328 328 327 324 322 322 324 325 328 333 337 340 343 346 345 343 343 342 341 341 341 339 336 334 332
316 317 318 318 318 319 319 319 320 318 317 318 316 315 312 313 319 324 326 327 326 328 326 323 321 321 322 323 327 333 339 343 345 345 344 343 342 341 341 341 338 336 333
312 313 313 315 314 314 312 313 313 313 313 316 319 318 311 306 310 316 320 324 325 326 327 326 324 322 321 322 323 326 330 334 341 343 344 344 343 341 342 341 340 337 335
308 309 310 309 310 310 308 310 309 310 310 310 314 318 317 317 311 309 316 318 323 325 326 326 324 322 320 319 320 321 323 327 335 340 341 344 344 342 342 341 341 339 337
304 305 306 306 306 307 307 307 305 304 305 305 306 306 307 311 316 313 310 313 318 322 324 325 325 323 322 320 320 320 321 326 333 337 338 340 344 343 343 341 341 340 339
300 300 302 303 304 304 304 305 305 304 303 302 303 303 304 304 302 303 305 309 312 316 320 323 323 323 323 321 318 318 320 324 330 335 337 339 339 341 342 342 340 340 338
296 296 297 298 299 301 303 303 300 299 299 299 299 300 302 303 303 303 303 301 301 310 316 320 322 323 323 323 321 315 317 323 327 333 336 338 334 334 335 339 340 340 339
295 296 296 296 296 297 298 299 298 296 297 296 298 297 299 301 300 302 300 298 298 303 314 317 317 320 320 321 319 315 318 319 323 328 333 332 329 328 329 331 334 336 336
293 294 294 294 294 294 294 296 295 296 296 297 297 297 296 298 300 298 297 298 298 296 298 309 313 311 313 320 320 320 320 319 321 323 325 325 323 323 324 327 328 328 330
288 288 288 289 289 290 291 291 290 291 291 292 294 294 293 295 297 296 296 298 296 296 296 302 305 306 309 310 316 319 320 314 317 321 321 319 319 319 320 322 323 324 325
285 285 285 285 285 285 286 286 286 287 287 287 289 289 291 293 292 292 293 296 295 296 293 295 299 303 305 306 308 309 315 319 319 317 319 319 318 317 318 319 320 321 322
284 284 284 284 284 285 285 285 285 285 285 285 285 286 287 290 290 290 291 293 292 294 292 290 294 297 298 304 304 304 307 308 309 311 316 318 317 317 316 317 317 317 317
283 283 283 283 283 284 283 284 284 284 284 284 284 284 285 287 286 287 288 290 291 293 292 291 291 295 297 300 300 302 303 304 305 306 309 310 312 314 315 315 315 315 314
283 282 283 283 283 283 284 284 285 284 283 284 284 284 284 285 285 287 288 287 289 288 288 288 289 290 292 294 296 297 295 298 300 304 305 307 308 309 310 312 312 311 310
282 282 282 282 282 283 285 285 285 284 283 283 283 284 284 287 289 289 288 287 286 285 285 285 285 287 288 289 290 291 291 292 296 300 300 302 304 306 308 310 309 308 308
281 281 281 281 281 284 289 290 289 284 283 282 281 282 283 286 286 289 291 292 290 285 284 283 283 284 285 288 289 289 288 287 288 298 295 295 300 301 304 306 309 309 308
280 280 281 281 280 280 289 289 290 284 282 281 282 282 282 284 285 284 288 290 289 291 290 285 282 283 284 286 288 286 285 285 286 290 291 289 296 296 301 304 306 307 307
280 280 280 280 280 281 288 288 289 281 281 281 282 281 281 281 283 286 284 283 283 284 285 286 284 284 285 286 286 286 285 285 286 288 289 287 292 293 297 299 303 305 307
278 278 280 279 278 279 286 287 286 281 281 281 282 282 283 282 286 288 284 282 282 283 288 290 290 291 291 291 290 285 282 282 282 283 287 286 287 290 292 294 298 302 305
280 280 279 278 281 277 284 286 285 281 280 280 280 281 285 284 287 288 284 282 281 282 283 284 284 285 286 285 288 284 281 282 283 281 286 285 287 288 288 289 290 293 300

GFSMA_sfc_thetae_117.txt.gz
Theta_e
330 331 332 332 333 333 334 334 335 335 334 334 334 333 332 332 332 332 331 329 333 337 339 342 346 344 343 341 340 340 340 338 337 337 336 335 334 334 333 332 331 331 331
330 329 330 330 332 334 334 336 333 333 333 333 333 334 334 333 332 332 331 330 330 334 338 339 343 345 343 344 342 341 341 340 338 338 337 337 336 336 335 334 333 332 332
327 329 328 327 329 330 331 331 330 329 330 331 332 333 332 332 331 331 332 331 328 328 332 337 342 344 345 343 344 343 341 341 341 340 340 338 339 338 337 335 334 333 333
326 326 327 326 327 326 326 326 325 324 326 325 327 327 329 330 331 329 329 330 330 329 330 334 338 341 343 345 343 344 344 342 341 341 341 340 339 339 339 337 335 334 333
324 326 327 327 325 326 323 322 322 323 321 322 322 323 323 324 326 329 328 328 327 327 327 329 331 334 337 341 344 345 346 344 342 342 341 341 340 340 340 339 337 335 334
322 323 325 326 325 324 323 321 319 320 321 321 322 322 321 322 323 324 326 328 328 327 325 325 327 329 331 337 340 344 344 344 343 342 342 342 341 341 341 340 339 336 335
317 318 320 321 322 321 322 322 320 317 317 320 317 316 317 320 321 323 324 325 326 326 326 325 324 326 327 332 336 339 342 344 344 343 343 343 342 342 342 342 341 339 336
312 313 315 315 316 317 315 315 313 317 319 320 315 314 308 310 314 319 321 323 324 326 326 324 322 323 325 325 326 333 338 342 343 343 342 343 343 342 342 342 341 340 338
309 310 310 311 313 312 311 310 310 309 310 314 314 314 309 303 310 312 315 320 321 323 325 325 326 323 321 321 323 325 328 333 339 342 342 343 343 343 343 343 342 341 339
303 305 306 307 307 308 308 308 308 307 308 305 309 310 308 309 306 304 311 313 317 318 321 324 325 326 325 323 321 320 322 326 334 338 340 340 341 344 343 343 343 342 340
300 301 303 304 303 304 305 305 304 304 304 304 303 304 305 305 306 302 302 303 307 312 318 321 323 325 325 323 321 320 320 325 331 334 337 340 340 341 343 343 342 341 340
298 297 298 299 300 302 302 301 300 300 300 301 300 301 300 301 300 300 299 299 300 305 306 309 320 322 324 324 322 319 320 322 328 332 333 337 338 338 340 342 342 340 339
294 295 296 295 295 296 297 300 299 298 298 296 297 297 298 301 299 299 300 297 297 300 307 306 316 319 313 315 320 317 317 320 324 329 331 335 335 334 334 335 340 340 339
294 294 294 294 294 294 296 296 297 296 298 297 296 296 296 297 297 298 294 293 292 298 302 304 310 307 306 307 311 310 317 317 320 325 329 331 329 328 329 330 331 334 336
289 288 288 288 288 289 291 291 291 289 290 291 293 293 292 295 297 295 294 294 294 290 292 301 300 303 303 306 306 309 309 312 318 320 323 323 322 323 325 326 327 328 328
285 285 285 285 286 286 287 286 286 287 286 287 288 288 290 292 293 293 292 293 293 291 289 295 294 297 299 300 303 305 307 308 311 318 319 318 319 320 321 323 323 324 325
283 283 283 284 283 283 284 284 285 285 285 284 285 285 286 287 289 290 291 293 291 292 287 290 292 294 295 297 299 301 305 307 307 309 311 317 318 319 320 319 320 321 322
283 283 283 283 283 283 283 283 283 284 283 283 283 283 283 286 286 286 287 288 290 291 290 286 289 290 291 294 295 297 301 304 301 304 308 310 312 315 316 317 317 318 318
282 282 282 282 282 283 282 282 283 283 283 283 283 282 282 283 283 284 285 286 286 290 287 286 285 289 291 292 292 295 294 295 297 300 306 308 309 310 311 313 316 316 315
281 281 281 282 282 282 283 283 284 283 283 283 283 283 282 283 283 283 285 284 286 285 285 284 284 285 287 290 291 290 289 292 292 296 300 301 302 303 308 309 310 309 309
281 281 281 281 281 282 284 284 284 283 282 282 282 282 283 285 287 287 286 285 285 284 283 283 282 283 284 285 286 288 287 288 289 297 292 292 294 297 303 305 306 306 307
280 280 280 280 280 283 287 290 288 283 282 281 280 281 282 285 285 288 289 290 289 284 284 284 281 281 282 284 284 285 285 283 282 291 287 287 292 294 296 299 304 305 306
279 279 279 279 279 279 288 288 289 281 281 280 281 281 282 284 284 282 286 288 287 289 289 285 282 281 282 283 284 282 282 283 283 286 287 285 290 291 296 300 302 302 304
278 278 278 279 278 280 286 288 288 281 280 280 281 280 280 280 282 284 283 282 282 282 283 285 283 284 284 285 284 287 284 282 284 286 287 282 287 286 291 295 298 301 302
277 278 279 278 277 278 285 286 286 281 281 280 280 281 281 281 285 287 283 282 281 282 287 288 289 290 290 290 290 286 280 279 279 281 284 284 284 286 288 290 294 298 299
279 280 280 278 280 277 283 286 285 281 279 280 280 281 285 284 286 287 284 282 281 281 282 282 282 284 286 285 289 284 282 277 279 277 284 282 283 282 281 287 290 293 294

GFSMA_sfc_thetae_120.txt.gz
Theta_e
325 328 330 332 333 335 331 331 333 334 334 334 335 333 332 332 331 332 331 330 334 337 339 340 340 343 344 343 342 341 341 340 338 338 337 336 335 334 333 333 332 332 332
321 324 325 327 330 332 333 332 333 333 335 333 333 333 333 332 332 332 332 330 332 334 337 339 340 340 343 344 343 342 342 342 340 337 336 338 337 336 335 335 334 333 332
317 321 324 325 326 328 328 330 329 331 330 331 331 332 333 333 332 330 331 331 331 330 332 336 338 340 341 342 344 343 343 342 342 341 340 339 338 338 337 335 335 334 334
318 319 321 323 325 326 327 326 324 323 326 326 326 327 328 331 331 328 329 330 331 331 331 333 336 338 340 341 342 345 344 343 341 342 341 340 340 339 339 339 338 337 335
320 320 323 323 324 324 324 324 323 322 320 320 322 322 322 324 325 328 327 327 327 328 328 329 330 332 335 340 343 344 345 343 342 341 342 341 340 340 340 340 339 339 336
316 317 320 321 323 324 323 322 321 322 321 322 322 321 320 320 321 321 323 326 325 325 325 324 325 326 328 334 338 344 345 343 343 342 342 342 341 341 341 341 340 339 338
312 313 315 316 318 317 316 315 318 320 318 319 319 316 316 319 318 319 319 320 322 324 324 325 324 324 325 330 334 338 343 344 344 342 342 342 342 342 342 342 341 341 339
307 309 310 311 311 313 311 311 312 314 316 314 313 314 309 311 313 315 317 319 319 321 323 324 324 324 323 324 324 331 335 339 341 343 341 341 342 342 343 343 342 341 341
304 305 305 306 307 308 308 307 307 307 310 312 311 312 307 306 307 311 312 315 317 318 321 323 324 324 323 322 323 324 327 331 336 339 342 341 341 341 342 344 343 342 341
300 302 303 304 303 304 304 304 306 305 306 304 309 308 308 308 305 304 310 308 307 306 308 310 315 321 324 324 322 320 321 324 331 334 337 341 340 341 341 343 343 343 341
297 298 298 298 300 302 302 301 301 300 302 301 300 301 304 305 306 301 299 302 305 306 306 304 306 310 318 312 313 313 310 316 329 332 334 336 339 341 341 341 342 342 341
294 294 296 295 295 296 298 300 298 297 297 298 298 296 297 299 298 296 296 298 299 300 301 304 311 307 308 306 309 308 310 313 320 328 332 334 336 339 340 340 340 340 340
291 292 293 293 293 295 295 297 298 296 297 297 296 295 296 297 297 296 296 292 291 295 300 301 306 304 303 303 306 305 309 310 313 319 327 332 333 332 332 336 338 338 339
287 287 287 288 289 290 291 291 290 289 291 290 292 292 293 294 295 296 292 289 286 291 293 296 303 298 299 298 300 302 305 307 310 315 317 325 327 327 328 330 332 333 334
287 285 286 285 286 286 287 287 286 285 286 286 286 287 288 290 292 293 292 291 289 287 285 291 291 295 294 298 299 300 301 304 308 309 310 311 313 320 323 325 327 328 329
284 284 284 284 284 284 285 285 285 285 284 285 285 284 285 287 288 290 290 290 291 287 284 290 290 291 292 294 297 297 297 302 304 303 305 309 311 313 319 321 323 324 325
282 282 282 283 283 283 282 283 283 284 284 283 284 283 284 284 285 286 287 288 289 289 286 288 289 289 289 291 294 294 298 297 298 299 302 308 307 307 311 315 319 321 322
282 282 282 282 282 282 282 281 282 283 283 282 282 282 282 284 283 284 284 285 286 286 287 284 285 285 286 289 291 291 295 296 295 297 299 304 302 302 303 309 311 318 319
281 281 281 281 281 282 281 281 282 282 282 282 282 281 281 282 281 282 283 283 284 286 285 284 283 285 285 286 287 289 290 291 292 293 299 297 297 298 299 305 307 308 310
280 280 280 281 281 281 282 282 283 283 282 282 282 282 281 281 281 282 283 283 285 283 283 283 282 283 283 285 286 285 285 288 287 290 294 292 294 294 296 299 299 303 305
280 280 280 280 280 281 283 283 284 283 282 281 281 281 282 284 287 287 285 283 283 282 282 282 283 283 282 282 282 284 284 285 285 289 287 288 289 290 293 297 299 301 304
279 279 279 279 279 282 286 289 287 281 281 281 279 280 281 284 284 288 288 289 288 283 281 281 282 281 281 281 283 283 282 282 280 286 285 285 289 288 291 294 297 296 300
278 278 278 278 278 278 286 288 289 281 280 280 281 281 281 283 284 281 285 288 286 288 288 283 280 280 281 282 283 282 283 284 282 284 284 282 286 286 290 292 295 298 299
278 278 278 278 277 279 286 287 288 281 280 280 281 279 279 280 281 283 282 281 282 282 282 284 282 282 282 285 285 286 285 284 282 282 283 279 285 285 287 289 295 297 297
277 277 279 278 276 277 284 286 285 281 281 280 280 280 280 280 284 287 283 281 281 281 286 288 288 289 289 288 287 284 281 280 279 279 281 283 283 282 284 285 293 291 292
280 280 280 278 279 277 282 285 285 281 279 280 279 280 285 284 287 287 284 283 281 281 281 282 281 283 284 283 286 282 281 279 279 277 280 277 279 280 279 283 284 286 286

GFSMA_sfc_thetae_123.txt.gz
Theta_e
318 321 322 328 331 333 334 335 336 337 338 339 339 340 340 341 341 341 340 331 335 339 341 341 341 341 343 344 343 343 342 342 341 340 339 338 337 335 334 333 333 333 333
318 320 321 322 324 328 331 333 334 334 335 336 334 335 336 338 340 340 340 340 332 335 338 341 342 341 341 341 344 343 343 342 341 341 340 337 337 338 336 335 335 334 333
323 323 324 325 328 330 330 332 333 331 332 333 332 333 334 334 335 336 337 338 336 330 334 338 340 341 341 342 343 343 344 343 342 342 341 340 338 339 339 338 337 336 335
319 319 320 322 326 327 328 328 329 330 328 329 329 330 330 331 332 333 336 337 337 336 333 333 337 340 340 342 342 343 343 343 342 341 342 341 339 339 340 339 338 338 337
315 317 319 321 323 325 325 325 325 325 326 326 326 327 329 329 330 331 334 333 334 334 335 332 330 331 334 337 339 340 341 344 342 341 341 341 341 340 340 340 340 339 339
313 314 317 318 320 319 317 318 322 324 323 321 323 323 325 327 329 329 330 330 330 332 332 332 331 330 328 331 334 336 338 340 342 342 342 341 341 341 341 341 340 340 340
310 311 312 313 315 313 313 312 315 318 318 319 320 318 320 321 321 322 325 326 327 328 329 329 330 330 329 329 330 332 334 336 338 341 341 341 341 342 342 341 342 341 341
307 307 308 310 310 311 310 310 309 312 316 316 315 315 310 314 316 316 318 319 319 320 318 319 320 323 327 328 327 328 330 333 335 336 338 340 340 340 341 343 343 342 341
302 304 305 305 306 306 305 307 307 306 308 312 310 311 308 306 309 314 314 313 310 310 310 311 313 313 316 323 324 323 315 318 325 330 334 336 337 340 341 343 343 342 342
299 300 300 301 303 304 302 302 302 304 306 303 308 307 308 307 306 306 313 311 310 308 308 309 308 314 311 310 311 309 309 314 319 325 329 331 334 335 340 341 342 342 342
297 297 297 297 298 299 301 301 300 299 301 300 300 301 304 305 306 301 299 302 303 306 305 304 307 309 306 304 304 305 305 313 316 320 325 327 330 333 335 336 341 340 339
295 295 295 295 296 296 296 299 298 299 299 299 298 298 298 298 297 296 294 295 296 296 297 304 309 304 302 298 300 302 304 309 311 316 321 323 321 322 329 334 335 339 339
291 291 292 292 292 294 293 294 292 293 294 297 295 296 296 298 298 296 294 293 291 292 298 299 301 301 298 296 298 299 302 305 306 313 316 317 315 316 318 323 332 335 338
290 290 290 291 290 291 291 292 291 291 290 292 289 290 293 295 295 296 293 290 287 290 294 295 299 298 297 295 297 298 300 299 305 309 309 309 310 311 312 314 323 330 331
290 289 289 289 289 289 290 290 290 290 290 290 290 289 289 290 292 295 294 292 289 286 287 292 292 296 296 295 296 297 296 299 300 301 302 303 306 308 309 309 312 318 325
287 287 287 288 288 288 288 289 289 289 289 289 289 288 288 288 290 291 291 291 291 290 286 291 291 294 293 293 294 295 296 298 298 298 299 300 305 304 305 306 308 310 314
287 286 286 286 286 286 286 287 287 288 288 288 288 287 286 287 288 288 290 290 290 291 287 289 292 293 291 291 292 293 295 295 296 296 297 298 301 299 301 302 304 306 306
286 286 285 286 286 286 286 285 286 287 287 287 287 286 285 286 286 287 288 288 289 289 288 286 289 290 290 291 291 290 291 292 293 294 295 298 295 296 297 298 300 302 303
285 285 285 285 285 285 285 285 286 287 287 286 286 285 285 285 285 286 287 287 287 288 289 287 286 289 290 290 289 290 290 291 291 292 294 293 294 294 295 296 297 299 301
284 284 284 284 284 284 284 285 286 287 287 287 286 286 285 285 285 286 287 287 287 287 287 286 286 286 287 288 288 286 286 289 289 290 292 292 292 293 293 295 296 296 297
284 284 283 284 283 284 284 285 287 287 286 285 285 285 285 286 288 288 287 286 287 286 286 285 284 284 284 284 284 286 285 286 288 290 289 290 290 291 291 293 294 295 296
283 283 283 283 283 283 285 288 289 286 284 284 284 284 285 286 286 287 287 288 288 286 285 284 284 282 283 284 285 285 284 282 281 289 288 287 290 289 291 293 293 294 298
282 282 282 282 282 282 285 287 288 285 284 284 284 284 284 284 286 285 286 287 287 288 288 286 284 283 283 285 285 284 284 283 283 287 286 284 287 287 291 290 291 292 295
282 282 281 282 282 282 285 287 287 286 285 284 284 284 283 283 284 285 285 285 285 286 286 286 286 286 286 287 287 286 285 284 285 286 286 281 286 286 287 289 290 293 291
281 281 282 281 281 281 284 286 286 285 284 284 284 284 283 284 286 287 286 284 284 285 287 288 288 289 289 289 288 286 282 280 279 281 285 283 285 284 286 286 289 289 289
282 282 282 282 282 282 283 285 286 285 283 283 284 284 286 286 287 287 285 284 284 284 285 285 285 286 286 285 286 285 283 280 279 278 284 282 283 283 280 285 286 287 287

GFSMA_sfc_thetae_126.txt.gz
Theta_e
321 321 320 320 321 323 327 330 333 334 335 336 338 338 340 341 341 343 344 332 336 339 341 342 342 342 342 343 343 343 343 342 342 341 340 340 339 336 335 334 334 334 334
323 323 322 322 321 322 324 326 328 332 335 336 335 335 335 337 341 341 343 343 333 336 339 341 342 343 342 341 342 343 343 342 342 342 341 340 340 339 337 336 335 334 334
323 322 324 324 325 325 325 325 326 328 331 333 335 334 333 335 336 336 338 341 340 330 334 339 341 342 342 342 342 341 341 342 343 342 341 341 340 339 339 339 338 337 336
319 319 319 321 324 324 324 324 324 324 326 329 330 331 332 331 330 333 334 337 337 339 334 334 337 338 339 340 339 338 337 339 340 340 341 340 340 339 339 339 339 338 338
317 319 319 321 323 322 323 324 323 325 323 324 326 328 330 330 330 332 331 334 333 334 335 331 331 331 332 333 335 336 337 337 338 338 339 339 339 339 340 340 339 339 339
316 318 316 318 318 321 320 320 320 325 324 320 324 325 328 329 331 331 327 328 329 330 330 331 330 330 329 330 331 332 333 334 335 337 337 337 338 338 337 339 339 339 340
313 314 315 316 316 315 316 317 317 318 320 320 321 321 322 324 327 325 323 322 323 320 319 316 321 322 325 328 330 327 327 329 331 333 334 337 336 339 339 340 340 339 339
308 308 309 310 310 311 312 313 313 313 315 316 313 316 313 317 321 320 320 320 315 314 313 312 314 314 319 321 314 313 315 321 324 327 329 330 331 333 335 338 341 340 340
304 304 305 306 307 306 304 305 306 308 307 311 311 309 308 306 311 318 318 316 313 312 311 310 310 313 313 314 313 309 307 311 319 323 325 327 328 330 332 334 336 340 340
301 301 301 302 302 305 304 303 303 304 304 303 309 307 309 307 303 303 312 313 308 306 305 305 307 309 306 301 302 303 304 307 315 318 322 325 327 328 326 328 331 334 339
299 299 299 299 299 300 302 301 301 301 302 301 301 301 302 305 305 301 299 303 302 305 302 300 311 307 304 302 301 300 302 305 310 312 318 322 323 322 323 323 326 328 331
297 296 296 297 297 297 297 297 297 297 298 300 299 298 298 299 298 297 296 296 296 297 297 307 306 305 301 297 297 298 300 303 304 308 314 317 316 316 318 318 320 322 325
295 295 295 295 295 295 295 295 295 294 294 295 294 295 296 296 298 296 295 294 292 294 297 300 303 301 298 296 296 297 299 299 302 305 307 309 309 310 314 314 316 317 319
295 294 294 294 294 294 294 295 295 294 294 294 292 292 293 295 295 296 294 292 289 291 294 296 299 299 298 296 296 296 297 298 300 301 302 303 302 305 308 309 310 313 313
293 292 293 292 293 292 293 293 293 293 293 293 293 293 292 292 293 295 295 293 290 287 288 293 293 297 297 296 296 296 296 296 299 299 299 299 299 303 303 303 305 306 309
292 292 292 292 292 292 292 292 292 293 292 293 292 291 291 291 291 292 293 292 292 290 287 292 293 294 296 295 295 295 295 295 296 297 297 297 299 299 298 299 300 301 304
292 291 290 290 290 290 290 290 290 291 291 291 291 290 290 290 290 291 292 292 291 291 288 290 292 294 293 293 294 294 294 294 294 295 296 296 297 296 296 297 298 299 300
291 290 290 289 289 289 289 289 289 290 290 290 290 290 289 288 289 290 290 289 290 290 289 287 290 291 291 293 293 292 291 292 293 294 295 295 295 295 295 296 296 298 298
290 290 289 289 289 288 288 288 288 289 290 290 290 289 288 288 288 288 289 289 290 289 290 288 288 290 291 292 291 291 291 291 292 293 294 294 294 294 294 295 295 296 296
290 289 289 288 288 288 288 288 288 290 290 290 290 289 288 288 287 288 288 289 289 288 289 288 288 288 289 290 289 287 287 290 289 291 293 293 293 293 293 294 295 295 294
290 289 288 288 288 288 287 288 288 290 289 289 289 288 288 288 288 288 288 288 288 287 287 286 286 287 287 286 286 287 286 287 287 291 289 290 291 291 291 293 294 292 293
289 288 288 287 287 287 287 288 289 289 289 288 287 287 288 287 287 287 288 288 288 286 286 286 285 285 285 286 287 286 285 284 282 290 288 287 289 288 290 292 292 291 292
289 288 287 287 287 287 287 288 289 289 288 288 287 287 286 286 287 286 287 288 288 289 289 287 285 285 285 286 286 285 285 285 284 287 287 285 288 287 290 290 291 291 292
288 287 287 286 286 286 286 287 288 288 288 287 287 287 286 286 287 286 286 286 287 288 288 287 287 287 287 288 288 287 286 285 286 287 287 282 286 286 288 289 290 290 291
287 286 286 286 286 286 286 286 287 286 286 286 287 287 286 286 287 288 286 285 285 285 288 289 289 289 289 289 288 287 284 283 281 283 285 284 285 285 287 287 289 290 289
287 286 285 286 286 285 286 286 286 286 285 285 286 286 287 287 288 288 286 285 284 285 286 285 286 287 287 287 287 286 285 282 281 281 284 282 282 283 281 286 287 288 288

GFSMA_sfc_thetae_129.txt.gz
Theta_e
322 322 321 321 321 321 320 320 322 326 328 330 332 334 337 339 339 340 340 333 336 341 342 342 341 342 342 343 342 344 343 342 341 342 341 340 340 338 337 336 335 335 335
322 322 322 322 323 323 324 324 323 324 324 327 330 332 333 335 336 338 338 339 333 337 341 342 343 343 343 344 342 343 342 342 342 341 341 340 340 339 339 337 337 336 335
320 319 321 321 321 322 322 322 322 323 323 324 324 328 333 333 334 335 336 337 339 331 334 340 341 342 342 343 343 341 339 339 339 339 340 340 340 339 338 339 339 338 336
319 320 320 320 322 322 321 321 321 320 322 322 323 324 328 331 332 331 333 334 335 337 334 335 337 338 336 337 339 338 337 335 335 336 335 336 338 339 339 339 338 338 338
318 319 317 319 320 321 320 320 320 321 322 323 324 325 326 328 329 331 332 330 330 330 328 326 327 331 331 331 332 333 333 334 334 334 334 335 335 335 337 335 335 338 337
316 317 316 316 316 317 317 317 317 320 319 319 318 321 325 326 329 327 325 326 322 318 317 319 318 318 324 325 326 328 329 329 329 330 332 333 334 335 333 333 335 336 338
312 312 313 313 313 313 312 313 313 315 316 315 316 316 319 321 323 323 323 319 317 317 315 316 316 317 322 319 317 317 319 324 326 327 329 329 330 332 333 334 336 335 333
307 307 307 308 308 307 306 305 306 308 310 313 309 311 310 315 316 320 319 317 316 315 312 312 312 314 314 312 313 310 311 315 322 324 325 326 326 328 330 332 333 333 335
304 304 303 304 304 306 305 304 304 304 304 307 311 308 304 303 307 317 316 314 311 311 308 308 307 310 307 304 305 303 305 308 314 319 321 323 324 327 326 326 327 328 330
301 301 302 301 302 303 302 302 302 302 303 301 304 303 306 307 302 301 310 310 306 303 303 299 310 307 304 302 303 301 302 304 308 310 315 319 323 322 322 323 323 325 325
299 299 299 298 298 299 299 298 299 298 300 299 299 298 300 301 305 299 296 298 300 302 300 298 307 304 301 299 298 298 300 303 305 309 312 316 319 318 317 320 320 319 320
298 297 297 297 297 297 297 297 297 296 297 298 297 297 296 295 296 295 293 294 294 297 297 303 305 303 300 297 297 298 299 300 303 306 308 309 309 309 311 316 317 317 317
296 296 296 296 295 295 296 296 296 295 295 294 293 293 295 295 296 295 294 293 291 293 295 297 302 301 298 297 296 297 298 299 300 304 306 305 304 303 306 310 311 312 313
296 296 295 295 294 294 294 295 296 296 295 296 294 293 293 294 294 294 293 291 288 290 292 295 299 299 297 297 297 297 295 297 298 300 301 301 300 300 303 302 303 305 306
295 293 294 293 293 293 293 293 294 293 294 294 294 294 292 293 293 293 293 293 289 285 287 293 294 297 295 297 297 295 295 296 297 297 298 298 298 299 298 299 300 300 301
294 293 293 292 292 292 292 292 293 293 292 293 293 292 291 291 291 292 293 292 292 289 286 292 292 293 294 294 296 295 295 295 296 296 297 297 297 298 297 298 298 299 300
294 292 292 291 291 291 291 291 291 291 290 291 292 292 290 291 290 291 292 292 291 291 287 290 292 293 292 292 293 294 294 292 293 295 296 296 296 297 297 297 297 297 298
294 292 291 290 290 290 290 290 289 289 289 290 290 291 290 289 289 290 290 289 290 290 288 285 289 290 290 291 291 291 291 292 292 294 295 295 296 296 296 296 296 296 297
294 292 291 290 289 290 289 289 289 288 289 290 290 289 289 289 287 288 288 289 290 289 289 288 287 290 290 290 289 290 289 290 291 293 293 294 295 295 295 295 295 295 296
293 292 291 290 289 289 289 288 288 288 289 290 290 290 289 288 287 287 288 288 288 288 288 287 286 286 288 289 289 287 286 288 288 289 291 293 293 293 293 294 294 294 294
293 292 291 290 289 289 288 288 288 288 289 290 290 289 289 289 288 288 287 287 287 286 286 285 285 286 286 286 285 286 285 286 286 288 288 289 288 288 289 291 292 293 293
292 291 290 289 288 288 291 289 288 288 289 289 288 288 289 290 288 289 289 289 288 285 284 284 284 283 284 285 286 285 284 282 281 288 286 285 287 286 287 289 292 293 292
292 291 290 289 288 288 290 289 289 288 287 288 288 288 287 287 288 286 288 288 289 290 289 287 284 284 284 285 285 284 284 284 283 285 285 282 285 284 287 288 291 291 292
291 291 290 289 288 287 290 289 289 287 287 287 288 287 287 286 287 287 286 286 286 287 287 287 287 286 286 287 286 286 285 285 285 285 286 280 284 282 285 286 289 290 291
291 291 290 288 287 287 289 288 288 286 285 286 287 287 287 286 288 289 286 285 285 285 289 290 290 290 290 290 289 286 283 281 279 281 284 282 282 282 282 282 286 289 290
290 289 287 287 288 286 289 288 287 285 284 285 286 286 288 287 288 288 286 285 283 285 286 286 286 287 287 286 288 285 283 280 279 279 282 281 280 280 278 282 283 284 285

GFSMA_sfc_thetae_132.txt.gz
Theta_e
317 317 317 317 317 317 317 317 317 317 317 319 322 326 327 329 331 333 334 332 335 340 343 344 344 343 342 342 342 344 344 344 342 342 341 341 340 340 338 337 336 336 335
315 316 317 317 316 317 317 316 316 316 317 318 319 321 323 327 330 331 332 333 335 335 339 342 343 343 343 343 343 344 343 342 342 341 341 340 340 339 339 339 338 337 336
314 314 315 316 317 318 317 317 317 317 316 318 317 320 321 324 327 328 329 331 332 331 333 336 339 341 342 343 344 343 343 341 339 339 338 339 339 340 339 339 338 338 337
314 315 314 315 316 317 316 315 315 316 319 318 317 319 319 321 324 326 327 330 330 329 326 325 329 334 335 336 336 336 335 335 334 332 332 334 335 334 334 334 338 337 336
313 313 314 314 314 314 315 314 313 314 315 314 313 314 317 320 321 326 324 322 319 318 319 320 322 323 327 332 333 334 334 332 331 332 332 333 334 335 335 334 330 332 331
309 309 311 311 311 312 309 307 308 311 313 310 311 314 314 318 320 321 321 320 318 317 317 316 316 321 322 323 324 327 328 329 327 328 330 330 331 332 333 334 334 333 333
305 304 305 305 305 303 302 302 302 304 307 309 307 307 311 316 312 318 314 313 313 312 311 313 312 316 315 315 314 316 319 322 324 324 325 326 326 328 330 331 332 333 333
302 301 300 301 302 302 301 300 300 300 303 303 304 304 302 307 309 315 313 312 310 309 308 307 310 308 305 305 305 307 311 314 318 321 322 323 324 325 328 327 328 328 329
300 300 298 298 298 299 298 297 297 297 296 299 301 301 298 298 301 312 310 307 301 301 300 296 306 303 301 300 300 300 305 308 311 314 316 319 322 324 323 325 324 324 324
297 298 297 295 295 296 295 293 296 294 295 294 296 297 296 300 296 294 301 300 297 297 293 294 304 301 297 295 298 300 302 304 308 311 313 316 319 319 320 320 322 322 321
295 295 295 293 293 294 293 293 292 291 292 293 292 293 293 293 299 292 289 290 293 294 293 293 302 298 295 293 294 297 300 302 305 308 310 311 311 312 313 314 318 319 318
293 293 294 292 292 292 292 292 292 291 291 290 290 291 291 290 290 289 287 289 288 290 291 293 300 295 293 293 296 298 299 300 302 305 308 308 307 307 307 310 311 313 313
291 290 291 290 290 291 292 292 291 290 290 289 289 288 290 291 292 291 290 288 286 288 289 291 295 293 295 292 293 298 297 299 300 302 305 305 303 302 304 306 305 306 306
291 291 290 290 290 291 290 290 290 290 289 289 289 289 289 290 290 290 290 287 285 286 287 287 292 292 291 293 295 298 293 297 298 300 301 301 300 300 302 302 302 302 303
293 290 290 289 289 289 290 289 289 288 288 289 289 289 288 288 289 289 289 288 286 281 283 286 287 290 291 291 294 292 291 296 297 297 298 298 298 298 299 299 300 300 300
291 290 289 289 289 289 289 288 287 289 288 288 289 288 287 287 287 288 288 288 287 285 282 286 287 288 289 292 293 292 292 295 295 296 297 297 297 297 298 298 298 298 299
290 289 289 288 287 287 287 286 286 287 287 287 287 288 288 287 286 286 287 287 287 286 284 286 287 288 287 288 289 290 291 289 289 294 295 296 296 296 297 297 297 297 298
290 289 288 287 286 286 286 285 284 286 285 285 286 287 287 289 285 286 285 285 285 286 284 283 285 286 287 287 287 287 289 290 288 292 294 295 295 296 296 296 296 296 296
290 288 287 286 286 286 285 285 285 284 284 285 286 286 285 285 284 284 284 284 285 287 285 284 284 285 285 286 286 286 286 286 289 292 292 292 294 294 295 294 295 295 295
289 288 287 287 287 286 286 285 285 284 284 285 287 286 286 285 284 283 284 283 285 283 283 282 283 284 284 286 285 283 283 284 284 287 289 291 293 292 292 293 293 292 293
290 289 288 287 286 286 287 285 285 284 284 285 286 287 286 287 290 288 286 283 283 282 281 281 281 283 283 283 282 283 281 282 283 285 284 285 286 286 286 289 290 291 292
289 288 287 286 285 287 291 292 288 284 285 285 284 285 286 289 288 290 290 290 288 282 281 282 283 282 283 281 282 281 281 280 279 284 282 283 284 284 284 285 290 291 292
288 287 286 286 285 285 292 292 291 285 284 283 283 284 285 287 288 284 287 289 288 289 289 286 284 283 283 283 284 283 283 281 281 284 283 281 283 282 284 286 289 291 290
288 288 287 287 285 285 292 292 292 285 284 284 283 284 283 283 284 285 283 282 284 284 285 286 285 284 284 286 286 286 284 284 284 283 282 278 282 280 283 283 288 289 289
288 288 288 287 286 285 292 292 290 284 282 282 283 284 284 283 287 289 284 283 283 284 288 290 290 291 291 291 290 286 280 278 278 279 280 279 279 279 280 281 283 287 288
287 286 285 286 288 285 290 291 289 283 281 281 282 283 289 286 289 289 286 285 283 283 283 284 284 285 286 284 288 283 280 277 277 278 280 278 279 278 277 279 279 281 282